Location: Middlebury
(44.0153°N, 73.1678°W)
Time: 16:42:54
(UTC-04:00)

UWE-3 - Pass Details

Date: 29 June 2024
Orbit: 566 x 652 km, 97.8° (Epoch: 21 July)

Event Time Altitude Azimuth Distance (km) Brightness Sun altitude
Rises 03:45:26 0° 8° (N) 2,843 ? -12.4°
Reaches altitude 10° 03:47:39 10° 5° (N) 1,923 ? -12.2°
Maximum altitude 03:51:44 57° 287° (WNW) 683 ? -11.7°
Enters shadow 03:54:49 16° 211° (SSW) 1,517 ? -11.3°
